Location: Charlotte
(35.2269°N, 80.8433°W)
Time: 08:06:22
(UTC-04:00)

ISS - Visible Passes

Search period start: 28 August 2016 00:00
Search period end: 07 September 2016 00:00
Orbit: 402 x 406 km, 51.6° (Epoch: 28 August)

Date Brightness Start Highest point End Pass type
(mag) Time Alt. Az. Time Alt. Az. Time Alt. Az.
02 Sep -0.4 05:42:16 10° SSE 05:43:23 11° SE 05:44:30 10° ESE visible
03 Sep -3.1 06:23:46 10° SW 06:27:01 69° SE 06:30:16 10° NE visible
04 Sep -1.8 05:33:13 21° S 05:34:39 30° SE 05:37:34 10° ENE visible
05 Sep -0.4 04:43:17 13° ESE 04:43:17 13° ESE 04:44:14 10° E visible
05 Sep -2.7 06:15:57 14° WSW 06:18:31 42° NW 06:21:40 10° NE visible
06 Sep -3.5 05:25:54 82° SW 05:26:01 90° SE 05:29:18 10° NE visible
